Flag for U.S.A. Weather past 2 weeks in Hayward, California, U.S.A.

Now
58 °F

Overcast.


Feels Like: 55 °F
Forecast: 53 / 63 °F
Wind: 14 mph from West

Location: Hayward Air Terminal

Current Time: Apr 21, 2015 at 1:08:06 PM

Latest Report: Apr 21, 2015 at 11:54 AM


Visibility: 10 mi

Pressure: 29.95 "Hg

Humidity: 70%

Dew point: 48 °F

Location of HaywardLocation

Historic Weather in Hayward — Graph

°F

Hayward temperature yesterday

Maximum temperature yesterday: 64 °F (at 2:54 PM)
Minimum temperature yesterday: 54 °F (at 2:54 AM)
Average temperature yesterday: 57 °F

Past Weeks' High & Low Weather Summary

 TemperatureHumidityPressure
High81 °F (Apr 16, 3:54 PM)100% (Apr 7, 7:57 AM)30.37 "Hg (Apr 7, 7:57 AM)
Low45 °F (Apr 9, 2:54 AM)14% (Apr 16, 3:54 PM)29.80 "Hg (Apr 7, 5:54 AM)
Average58 °F64%30.05 "Hg
* Reported Apr 6 11:54 AM — Apr 21 11:54 AM, Hayward, Weather by CustomWeather, © 2015

Note: Actual official high and low records may vary slightly from our data, if they occured in-between our weather recording intervals... More about our weather records

Advertising

Hayward weather history for previous 24 hours

 ConditionsComfort  
Time TempWeatherWind HumidityBarometerVisibility
11:54 AM
Tue, Apr 21
58 °FOvercast.14 mph70%29.95 "Hg10 mi
10:54 AM57 °FOvercast.14 mph72%29.95 "Hg10 mi
9:54 AM56 °FOvercast.10 mph77%29.94 "Hg10 mi
8:54 AM55 °FMore clouds than sun.10 mph80%29.93 "Hg10 mi
7:54 AM55 °FOvercast.12 mph77%29.91 "Hg10 mi
6:54 AM54 °FMostly cloudy.10 mph80%29.90 "Hg10 mi
6:04 AM54 °FMostly cloudy.7 mph82%29.86 "Hg10 mi
4:54 AM55 °FOvercast.8 mph80%29.88 "Hg10 mi
3:54 AM55 °FOvercast.7 mph80%29.88 "Hg10 mi
2:54 AM55 °FOvercast.6 mph80%29.89 "Hg10 mi
1:54 AM55 °FOvercast.7 mph80%29.89 "Hg10 mi
12:54 AM55 °FMostly cloudy.7 mph80%29.90 "Hg10 mi
11:54 PM
Mon, Apr 20
54 °FPassing clouds.8 mph83%29.90 "Hg10 mi
10:54 PM55 °FPassing clouds.12 mph80%29.90 "Hg10 mi
9:54 PM55 °FPassing clouds.8 mph80%29.89 "Hg10 mi
8:54 PM56 °FPassing clouds.7 mph81%29.89 "Hg10 mi
7:54 PM56 °FSunny.9 mph77%29.88 "Hg10 mi
6:54 PM58 °FSunny.14 mph75%29.87 "Hg10 mi
5:54 PM60 °FSunny.17 mph69%29.87 "Hg10 mi
4:54 PM61 °FSunny.14 mph67%29.88 "Hg10 mi
3:54 PM63 °FSunny.17 mph63%29.88 "Hg10 mi
2:54 PM64 °FSunny.16 mph61%29.89 "Hg10 mi
1:54 PM63 °FScattered clouds.13 mph65%29.90 "Hg10 mi
Weather by CustomWeather, © 2015

See weather overviewHow to use our weather pages